Location: Bamazo
(6.7448°N, 10.8189°W)
Time: 02:39:55
(UTC+00:00)

Palapa 6 Rocket - Visible Passes

Search period start: 23 January 2021 00:00
Search period end: 02 February 2021 00:00
Orbit: 485 x 1216 km, 22.7° (Epoch: 22 January)

Date Brightness Start Highest point End Pass type
(mag) Time Alt. Az. Time Alt. Az. Time Alt. Az.
23 Jan 4.5 20:06:58 10° W 20:12:20 40° SSW 20:15:46 16° SE visible
24 Jan 4.9 19:51:57 10° W 19:57:27 36° SSW 20:02:00 10° SE visible
25 Jan 5.2 19:36:56 10° W 19:42:32 33° SSW 19:47:12 10° SE visible
26 Jan 5.2 06:34:36 10° SW 06:39:11 34° SSE 06:44:42 10° E visible
26 Jan 5.5 19:21:55 10° W 19:27:36 30° SSW 19:32:22 10° SSE visible
27 Jan 4.8 06:19:50 10° SW 06:24:17 38° SSE 06:29:42 10° E visible
27 Jan 5.8 19:06:54 10° W 19:12:38 28° SSW 19:17:32 10° SSE visible
28 Jan 4.4 06:05:05 10° SW 06:09:25 42° SSE 06:14:41 10° E visible
29 Jan 4.0 05:50:57 14° SW 05:54:35 48° SSE 05:59:41 10° E visible
30 Jan 3.6 05:37:49 29° SW 05:39:46 55° SSE 05:44:42 10° ENE visible
31 Jan 3.1 05:24:38 61° S 05:24:59 65° SSE 05:29:43 10° ENE visible
01 Feb 3.7 05:11:22 47° E 05:11:22 47° E 05:14:46 10° ENE visible
